Location: *
(28.2408°N, 53.4600°E)
Time: 21:57:59
(UTC+00:00)

HJ-1C - Pass Details

Date: 22 September 2019
Orbit: 435 x 449 km, 97.2° (Epoch: 18 October)

Event Time Altitude Azimuth Distance (km) Brightness Sun altitude
Exits shadow 15:46:59 39° 169° (SSE) 685 4.1 -19.2°
Maximum altitude 15:48:08 90° 243° (WSW) 451 3.3 -19.4°
Drops below altitude 10° 15:51:31 10° 349° (N) 1,576 6.4 -20.1°
Sets 15:53:34 0° 349° (N) 2,452 7.4 -20.6°
